Погода в Полоцке

Погода в Полоцке : погода сейчас, прогноз погоды и архив. Всё, что Вы хотите узнать о погоде в Полоцке!

Хотите узнать прогноз погоды в Полоцке? Тогда Вам сюда: Погода в Полоцке

Поиск расширенной информации на нашем сайте:

Другие новости

Новости СМИ2

Главная страница сайта

Новости сайта

02.10.2013

Напоминаем, что на нашем новом сайте вы можете получить высокодетализированные прогнозы погоды по пунктам России, СНГ и мира (включающие важные для авиации метеовеличины, такие как направление и скорость ветра, видимость, явления погоды, количество и форма облачности, нижняя и верхняя граница облачности), а также ознакомиться с разнообразными материалами по авиационной метеорологии и подборкой полезных ссылок на эту тему.

Сайт Метеоцентр.Азия посвящён разработке технологий оптимизации авиаметеорологического обслуживания, включая проектирование и перспективное создание нескольких автоматизированных авиаметеорологических систем:
- система выпуска высокодетальных прогностических карт явлений погоды для нижнего воздушного пространства по России и ближнему зарубежью;
- система верификации прогнозов TAF (выпускаемых синоптиками официальных АМСГ РФ и ближнего зарубежья) и AUTOTAF (выпускаемых сайтом Метеоцентр.Азия) - выявление ошибок, онлайн-сопоставление с фактической погодой METAR, автоматическое внесение коррективов в прогнозы при резком отклонении фактической погоды от прогноза, подсчёт оправдываемости прогнозов по элементам и в целом;
- система обработки, анализа и отображения авиаметеорологической информации для применения провайдерами метеорологической информации.


Погода в Полоцке - сегодня

Время (UTC), дата Ветер
(°,м/с) 
Видим.   Явления Облачность Т
(°С)
Тd
(°С)
f(%) Тe
(°С)
Pmin
(гПа)
dP
(гПа)
Po
(мм)
O2
(г/м3)
Тmin Tmax R s Состояние
почвы
09 17.02.17 260 (З) 3100 м  дымка  10/10 150 м 
[St]
+1.7 +0.1 89 +1  1013.7  -0.9  748  299           
12 17.02.17 270 (З) 5000 м  слаб. дождь  10/10 240 м 
[Frnb]
+2.9 +1.1 88 +2  1012.5  -1.1  747  298           
18 17.02.17 250 (З) 8000 м  слаб. дождь  10/10 150 м 
[Frnb|Ns]
+1.9 +0.8 92 +1  1013.1  0.4  747  299    +3.3  15   
21 17.02.17 240 (ЮЗ) 10 км  {дождь}  10/10 240 м 
[St]
+1.7 +0.3 90 +1  1013.5  0.4  748  299           
00 18.02.17 250 (З) 10 км  {дождь}  10/10 210 м 
[St]
+1.5 +0.4 92 1013.4  -0.1  748  300           
03 18.02.17 240 (ЮЗ) 7000 м  дымка  10/10 120 м 
[St]
+1.3 +0.8 96 1013.4  748  300      0.3  13   
06 18.02.17 270 (З) 5000 м  дымка  10/10 60 м 
[St]
+1.2 +0.7 96 +1  1014.2  0.7  748  300  +1.2    0.3  13  равномерный
мокрый или
старый снег
100% 
09 18.02.17 290 (З) 9000 м  дымка  10/10 240 м 
[St]
+1.6 +0.2 90 +1  1015.2  749  300           
12 18.02.17 290 (З) 10 км    10/10 720 м 
[St]
+1.8 -0.4 85 +1  1015.8  0.6  749  300           
15 18.02.17 270 (З) 10 км    10/0 средняя, верхняя 
[Ac trans|Ci ing]
+2.2 -1.2 78 +3  1016.4  0.6  750  300           
18 18.02.17 260 (З) 10 км    ясно 
+0.2 -2.2 84 -1  1017.5  751  302    +2.5    12   
21 18.02.17 240 (ЮЗ) 10 км    9/9 240 м 
[St]
-0.4 -2.2 88 -1  1018.1  0.6  751  303           
00 19.02.17 230 (ЮЗ) 10 км    10/10 210 м 
[St]
-0.1 -1.9 88 -1  1017.9  -0.2  751  303           
03 19.02.17 260 (З) 10 км    10/10 270 м 
[St]
+0.9 -1.1 86 -1  1017  -0.8  750  301        12   
06 19.02.17 220 (ЮЗ) 10 км  {снег}  10/10 300 м 
[St]
+0.9 -1.4 85 -1  1015.8  -1.2  749  301  -0.9    0.0  11  равномерный
мокрый или
старый снег
100% 
09 19.02.17 230 (ЮЗ) 5-10{11}  15000 м    10/10 360 м 
[St]
+1.4 -1.5 81 -1  1014.9  -0.9  749  300           
12 19.02.17 230 (ЮЗ) 6-12{12}  15000 м    10/10 360 м 
[St]
+1.8 -1.3 80 -1  1012.9  -1.9  747  299           
15 19.02.17 230 (ЮЗ) 6-12{12}  10 км  в посл. час дождь{снег}  10/10 330 м 
[St]
+1.8 -1 82 -1  1011.4  -1.5  746  299      0.0     
18 19.02.17 230 (ЮЗ) 5-11{12}  7000 м  слаб. дождь{снег}  10/10 360 м 
[Frnb|Ns]
+1.3 -0.7 86 -1  1010.8  -0.6  746  299    +2.4  0.4  10   
21 19.02.17 230 (ЮЗ) 5-10{11}  10 км  {дождь}  10/10 400 м 
[St]
+1.6 -0.3 87 -1  1009.7  -1.1  745  298           
00 20.02.17 240 (ЮЗ) 5-11{11}  10 км  {дождь}  10/10 300 м 
[St]
+1.8 +0.2 89 -1  1009  -0.7  744  298           
03 20.02.17 210 (ЮЗ) 5-10{11}  5000 м  слаб. дождь  10/10 240 м 
[Frnb|Ns]
+2.2 +1.4 94 1007.7  -1.2  743  297      0.0   
06 20.02.17 230 (ЮЗ) 6-12{12}  4800 м  в посл. час дождь  10/10 210 м 
[St]
+2 +0.7 91 -1  1006.4  -1.3  743  297  +1.3    0.3  равномерный
мокрый или
старый снег
100% 
09 20.02.17 230 (ЮЗ) 6-12{13}  4500 м  слаб. дождь  10/10 240 м 
[Frnb|Ns]
+2.2 +0.6 89 -1  1004.8  -1.6  741  296           
12 20.02.17 220 (ЮЗ) 6-12{12}  10 км  в посл. час дождь  10/10 480 м 
[St]
+3 +0.1 81 1002.3  -2.3  740  295           
Время (UTC), дата Ветер
(°,м/с) 
Видим.   Явления Облачность Т
(°С)
Тd
(°С)
f(%) Тe
(°С)
Pmin
(гПа)
dP
(гПа)
Po
(мм)
O2
(г/м3)
Тmin Tmax R s Состояние
почвы

Для получения пояснительной информации подведите курсор к названию столбца.

ПОГОДА в Полоцке - архив

Всё, что Вы хотите узнать о погоде в Полоцке - удобно и подробно!

Выберите нужную дату (начиная с 1 января 2015* года) и нажмите кнопку "Найти".
Будут отображены архивные сводки погоды по пункту Полоцк, начиная с указанной даты.


Отображать данные в формате CSV (для использования в таблицах Excel)


Внимание! Наш архив погоды предназначен исключительно для личного некоммерческого использования в познавательных целях. Если Вам необходимы официальные справки о состоянии погоды (для производственных, юридических, коммерческих и т.п. целей), обращайтесь в органы Росгидромета.

*Примечание: данная дата относится к архиву по метеостанциям СССР (Россия, СНГ, Балтия).
Архив по метеостанциям Зарубежной Европы и Азии (кроме Китая) хранится 10 дней, по другим регионам земного шара (Китай, Африка, Америка, Австралия, Океания) - 1 день.

Полоцк - район местоположения метеостанции


Название, широта, долгота, высота метеостанции:
Полоцк 55.5°ш. 28.8°д. 133 м над ур. моря [Беларусь]

Дополнительная информация

В oтличие oт бoльшинства пoгoдных сайтoв мы публикуем пoдрoбную метеoинфoрмацию в детальнoм прoфессиoнальнoм фoрмате.

Характеристики температуры и влажнoсти вoздуха измеряются на высoте 2 м в тени вдали oт зданий и деревьев.
Скoрoсть ветра измеряется на высoте 10 м (на урoвне рoста челoвека скoрoсть ветра ниже в 1.5-2 раза). Если метеoстанция нахoдится в гoрoде или в лесу, тo скoрoсть ветра занижена на 2-4 м/с пo сравнению с oткрытым местoм. Скoрoсть ветра над акватoриями крупных рек и oзёр, а также на вершинах хoлмoв на 2-5 м/с выше, чем в oбычных услoвиях.
Атмoсфернoе давление в разных тoчках местнoсти мoжет значительнo oтличаться oт давления на метеoстанции, в зависимoсти oт услoвий рельефа (при пoдъёме на 10 м давление пoнижается примернo на 1 мм рт.ст.).